sat.trackr.live / text

‹ back to catalog

UNKNOWN

NORAD 81893

UNKNOWN UNKNOWN UNKNOWN

§ Identity

Operator
Country
Launch date
Launch site
Launch vehicle
Mass (kg)
RCS (m²)

External: N2YO · Heavens-Above

§ Orbital elements

Epoch: 2026-09-18T05:46:21.536256Z

Period
104.56 min
Inclination
100.0643°
Eccentricity
0.0020209
Mean motion
13.77240007 rev/d
Perigee alt
958.8 km
Apogee alt
988.5 km
Semi-major
7,351.8 km
B*
7.0281e-4
RAAN
265.4115°
Arg perigee
272.9338°
Mean anomaly
86.9497°
Rev number
64,254

§ Raw data

UNKNOWN1 81893U          26261.24052704  .00000648  00000+0  70281-3 0  99982 81893 100.0643 265.4115 0020209 272.9338  86.9497 13.77240007642541

JSON: /api/v1/satellites/81893 · /tle

For live sub-satellite position, see the globe view (requires WebGL).

§ Visibility from observer

Set your observer location to see the next 7 days of passes ≥ 10°. The values pass through the URL so the page stays shareable.

No JS? Fill the form by hand. The geolocation button needs JavaScript.